Retour au catalogue

COSMOS 970 DEB

ActifLEO
NORAD 65001·DEBRIS·🇷🇺 Russia

Lancé Dec 21, 1977 depuis Baikonur Cosmodrome

Loading…

Prochains Passages (prochaines 24 heures)

TLE

FraisSource: Space-Track

Époque: Sep 14, 2026, 06:23 UTC

1 65001U 77121DN  26257.26641325 -.00000016  00000-0  10590-3 0  9997
2 65001  65.8198 212.6527 0099862 195.9334 233.8929 13.36850165625304

Suivez COSMOS 970 DEB en temps réel avec AllMySat

Download on the App Store